Location: Allos
(44.2333°N, 6.6333°E)
Time: 21:21:20
(UTC+00:00)

Cosmos 1821 Rocket - Pass Details

Date: 22 April 2021
Orbit: 946 x 1003 km, 82.9° (Epoch: 16 May)

Event Time Altitude Azimuth Distance (km) Brightness Sun altitude
Rises 23:54:52 0° 5° (N) 3,707 8.1 -33.3°
Reaches altitude 10° 23:58:29 10° 25° (NNE) 2,764 7.1 -33.2°
Maximum altitude 00:02:24 17° 64° (ENE) 2,314 6.3 -33.1°
Enters shadow 00:05:45 12° 98° (E) 2,658 6.3 -33.0°
